,,PA_Meas_PMT16A,,PR_Meas_QMR101_102,,RH_Meas_QMH101,,SR_Meas_QMS101,,TA_Meas_QMH101,,GenWind,,GenWind,
time,status,PA,status,PR,status,RH,status,SR,status,TA,status,DirAvg,status,SpdAvg,
2014-11-21, 00:00:04,VALID,917.423,VALID,0,VALID,97.9609,VALID,0,VALID,20.1529,VALID,167,VALID,0,
2014-11-21, 00:01:04,VALID,917.382,VALID,0.2,VALID,97.9838,VALID,0,VALID,20.1513,VALID,167,VALID,0,
2014-11-21, 00:02:04,VALID,917.371,VALID,0,VALID,97.999,VALID,0,VALID,20.1318,VALID,167,VALID,0,
2014-11-21, 00:03:04,VALID,917.362,VALID,0,VALID,97.9761,VALID,0.107441,VALID,20.1123,VALID,167,VALID,0,
2014-11-21, 00:04:04,VALID,917.359,VALID,0,VALID,97.9838,VALID,0,VALID,20.1123,VALID,167,VALID,0,
2014-11-21, 00:05:04,VALID,917.363,VALID,0.2,VALID,97.9761,VALID,0,VALID,20.0928,VALID,167,VALID,0,
2014-11-21, 00:06:04,VALID,917.384,VALID,0,VALID,97.9914,VALID,0,VALID,20.0928,VALID,167,VALID,0,
2014-11-21, 00:07:04,VALID,917.392,VALID,0,VALID,97.9838,VALID,0,VALID,20.1123,VALID,167,VALID,0,
2014-11-21, 00:08:04,VALID,917.399,VALID,0,VALID,97.9685,VALID,0,VALID,20.1123,VALID,167,VALID,0,
2014-11-21, 00:09:04,VALID,917.405,VALID,0,VALID,97.9914,VALID,0,VALID,20.1123,VALID,167,VALID,0,
2014-11-21, 00:10:04,VALID,917.424,VALID,0,VALID,97.9914,VALID,0,VALID,20.0928,VALID,167,VALID,0,
2014-11-21, 00:11:04,VALID,917.432,VALID,0.2,VALID,97.9914,VALID,0,VALID,20.0733,VALID,167,VALID,0,
2014-11-21, 00:12:04,VALID,917.457,VALID,0,VALID,97.9685,VALID,0,VALID,20.0538,VALID,167,VALID,0,
2014-11-21, 00:13:04,VALID,917.431,VALID,0,VALID,98.0143,VALID,0,VALID,20.0343,VALID,167,VALID,0,
2014-11-21, 00:14:04,VALID,917.401,VALID,0.2,VALID,97.9914,VALID,0,VALID,20.0343,VALID,159,VALID,0,
2014-11-21, 00:15:04,VALID,917.393,VALID,0,VALID,97.9838,VALID,0,VALID,20.0358,VALID,128,VALID,0,
2014-11-21, 00:16:04,VALID,917.389,VALID,0,VALID,98.0219,VALID,0,VALID,20.0163,VALID,128,VALID,0,
2014-11-21, 00:17:04,VALID,917.377,VALID,0.2,VALID,97.9838,VALID,0,VALID,20.0343,VALID,128,VALID,0,
2014-11-21, 00:18:04,VALID,917.349,VALID,0,VALID,97.9914,VALID,0,VALID,20.0358,VALID,128,VALID,0,
2014-11-21, 00:19:04,VALID,917.334,VALID,0,VALID,98.0066,VALID,0,VALID,20.0538,VALID,128,VALID,0,
2014-11-21, 00:20:04,VALID,917.309,VALID,0.2,VALID,97.999,VALID,0,VALID,20.0343,VALID,128,VALID,0,
2014-11-21, 00:21:04,VALID,917.314,VALID,0,VALID,97.999,VALID,0,VALID,20.0553,VALID,129,VALID,0,
2014-11-21, 00:22:04,VALID,917.3,VALID,0,VALID,97.999,VALID,0,VALID,20.0553,VALID,129,VALID,0,
2014-11-21, 00:23:04,VALID,917.303,VALID,0,VALID,97.9838,VALID,0,VALID,20.0538,VALID,129,VALID,0,
2014-11-21, 00:24:04,VALID,917.302,VALID,0.2,VALID,97.9914,VALID,0,VALID,20.0733,VALID,129,VALID,0,
2014-11-21, 00:25:04,VALID,917.299,VALID,0,VALID,97.9838,VALID,0,VALID,20.0749,VALID,129,VALID,0,
2014-11-21, 00:26:04,VALID,917.29,VALID,0.2,VALID,97.999,VALID,0,VALID,20.0749,VALID,129,VALID,0,
2014-11-21, 00:27:04,VALID,917.286,VALID,0,VALID,97.9761,VALID,0,VALID,20.0928,VALID,129,VALID,0,
2014-11-21, 00:28:04,VALID,917.262,VALID,0.2,VALID,97.9838,VALID,0,VALID,20.1334,VALID,129,VALID,0,
2014-11-21, 00:29:04,VALID,917.224,VALID,0,VALID,97.9838,VALID,0,VALID,20.1529,VALID,129,VALID,0,
2014-11-21, 00:30:04,VALID,917.217,VALID,0.2,VALID,97.9761,VALID,0,VALID,20.1318,VALID,129,VALID,0,
2014-11-21, 00:31:04,VALID,917.191,VALID,0,VALID,97.9838,VALID,0,VALID,20.1318,VALID,129,VALID,0,
2014-11-21, 00:32:04,VALID,917.208,VALID,0.2,VALID,97.9609,VALID,0,VALID,20.1334,VALID,129,VALID,0,
2014-11-21, 00:33:04,VALID,917.21,VALID,0,VALID,97.9914,VALID,0,VALID,20.0749,VALID,129,VALID,0,
2014-11-21, 00:34:04,VALID,917.224,VALID,0.2,VALID,97.9914,VALID,0,VALID,20.0148,VALID,129,VALID,0,
2014-11-21, 00:35:04,VALID,917.218,VALID,0,VALID,97.9914,VALID,0,VALID,20.0358,VALID,129,VALID,0,
2014-11-21, 00:36:04,VALID,917.204,VALID,0.2,VALID,98.0219,VALID,0,VALID,20.0163,VALID,129,VALID,0,
2014-11-21, 00:37:04,VALID,917.18,VALID,0.2,VALID,97.9914,VALID,0,VALID,20.0358,VALID,129,VALID,0,
2014-11-21, 00:38:04,VALID,917.154,VALID,0,VALID,97.999,VALID,0,VALID,20.0553,VALID,129,VALID,0,
2014-11-21, 00:39:04,VALID,917.132,VALID,0.2,VALID,97.9838,VALID,0,VALID,20.0553,VALID,129,VALID,0,
2014-11-21, 00:40:04,VALID,917.125,VALID,0.2,VALID,97.9685,VALID,0,VALID,20.0538,VALID,129,VALID,0,
2014-11-21, 00:41:04,VALID,917.089,VALID,0.2,VALID,97.9838,VALID,0,VALID,20.0749,VALID,129,VALID,0,
2014-11-21, 00:42:04,VALID,917.101,VALID,0.2,VALID,97.9914,VALID,0,VALID,20.0343,VALID,129,VALID,0,
2014-11-21, 00:43:04,VALID,917.115,VALID,0.2,VALID,97.999,VALID,0,VALID,20.0358,VALID,129,VALID,0,
2014-11-21, 00:44:04,VALID,917.08,VALID,0,VALID,97.999,VALID,0,VALID,20.0148,VALID,128,VALID,0,
2014-11-21, 00:45:04,VALID,917.048,VALID,0.2,VALID,98.0066,VALID,0,VALID,19.9953,VALID,128,VALID,0,
2014-11-21, 00:46:04,VALID,917.062,VALID,0.2,VALID,97.999,VALID,0,VALID,19.9758,VALID,128,VALID,0,
2014-11-21, 00:47:04,VALID,917.026,VALID,0,VALID,98.0066,VALID,0,VALID,19.9968,VALID,128,VALID,0,
2014-11-21, 00:48:04,VALID,917.014,VALID,0.2,VALID,97.9838,VALID,0,VALID,19.9953,VALID,128,VALID,0,
2014-11-21, 00:49:04,VALID,916.969,VALID,0,VALID,97.999,VALID,0,VALID,19.9953,VALID,128,VALID,0,
2014-11-21, 00:50:04,VALID,916.944,VALID,0.2,VALID,97.9838,VALID,0,VALID,19.9953,VALID,128,VALID,0,
2014-11-21, 00:51:04,VALID,916.942,VALID,0,VALID,97.999,VALID,0,VALID,19.9953,VALID,128,VALID,0,
2014-11-21, 00:52:04,VALID,916.921,VALID,0.2,VALID,97.999,VALID,0,VALID,19.9953,VALID,128,VALID,0,
2014-11-21, 00:53:04,VALID,916.935,VALID,0,VALID,98.0066,VALID,0,VALID,19.9953,VALID,128,VALID,0,
2014-11-21, 00:54:04,VALID,916.893,VALID,0.2,VALID,97.999,VALID,0,VALID,19.9563,VALID,128,VALID,0,
2014-11-21, 00:55:04,VALID,916.877,VALID,0,VALID,98.0066,VALID,0,VALID,19.9368,VALID,128,VALID,0,
2014-11-21, 00:56:04,VALID,916.84,VALID,0.2,VALID,97.999,VALID,0,VALID,19.9353,VALID,128,VALID,0,
2014-11-21, 00:57:04,VALID,916.867,VALID,0.2,VALID,97.9838,VALID,0,VALID,19.9368,VALID,129,VALID,0,
2014-11-21, 00:58:04,VALID,916.834,VALID,0,VALID,97.999,VALID,0,VALID,19.9368,VALID,128,VALID,0,
2014-11-21, 00:59:04,VALID,916.853,VALID,0,VALID,97.999,VALID,0,VALID,19.9368,VALID,128,VALID,0,
2014-11-21, 01:00:04,VALID,916.824,VALID,0.2,VALID,98.0143,VALID,0,VALID,19.9578,VALID,129,VALID,0,
2014-11-21, 01:01:04,VALID,916.817,VALID,0,VALID,98.0066,VALID,0,VALID,19.9563,VALID,128,VALID,0,
2014-11-21, 01:02:04,VALID,916.794,VALID,0.2,VALID,98.0143,VALID,0,VALID,19.9563,VALID,128,VALID,0,
2014-11-21, 01:03:04,VALID,916.79,VALID,0,VALID,98.0066,VALID,0,VALID,19.9968,VALID,128,VALID,0,
2014-11-21, 01:04:04,VALID,916.793,VALID,0.2,VALID,98.0066,VALID,0,VALID,19.9758,VALID,129,VALID,0,
2014-11-21, 01:05:04,VALID,916.783,VALID,0,VALID,98.0066,VALID,0,VALID,19.9758,VALID,128,VALID,0,
2014-11-21, 01:06:04,VALID,916.788,VALID,0.2,VALID,97.999,VALID,0,VALID,19.9953,VALID,128,VALID,0,
2014-11-21, 01:07:04,VALID,916.787,VALID,0,VALID,98.0143,VALID,0,VALID,19.9968,VALID,129,VALID,0,
2014-11-21, 01:08:04,VALID,916.8,VALID,0.2,VALID,97.9914,VALID,0,VALID,19.9953,VALID,128,VALID,0,
2014-11-21, 01:09:04,VALID,916.766,VALID,0,VALID,97.9914,VALID,0,VALID,19.9563,VALID,129,VALID,0,
2014-11-21, 01:10:04,VALID,916.789,VALID,0,VALID,98.0066,VALID,0,VALID,19.9563,VALID,129,VALID,0,
2014-11-21, 01:11:04,VALID,916.771,VALID,0.2,VALID,98.0066,VALID,0,VALID,19.9563,VALID,128,VALID,0,
2014-11-21, 01:12:04,VALID,916.763,VALID,0,VALID,98.0143,VALID,0,VALID,19.9563,VALID,129,VALID,0,
2014-11-21, 01:13:04,VALID,916.792,VALID,0,VALID,98.0066,VALID,0,VALID,19.9563,VALID,129,VALID,0,
2014-11-21, 01:14:04,VALID,916.759,VALID,0.2,VALID,97.999,VALID,0,VALID,19.9563,VALID,128,VALID,0,
2014-11-21, 01:15:04,VALID,916.747,VALID,0,VALID,98.0066,VALID,0,VALID,19.9968,VALID,129,VALID,0,
2014-11-21, 01:16:04,VALID,916.74,VALID,0,VALID,97.999,VALID,0,VALID,20.0163,VALID,128,VALID,0,
2014-11-21, 01:17:04,VALID,916.759,VALID,0,VALID,97.9914,VALID,0,VALID,20.0163,VALID,128,VALID,0,
2014-11-21, 01:18:04,VALID,916.741,VALID,0,VALID,97.9914,VALID,0,VALID,20.0343,VALID,129,VALID,0,
2014-11-21, 01:19:04,VALID,916.752,VALID,0,VALID,97.9838,VALID,0,VALID,20.0148,VALID,129,VALID,0,
2014-11-21, 01:20:04,VALID,916.77,VALID,0,VALID,97.999,VALID,0,VALID,20.0163,VALID,129,VALID,0,
2014-11-21, 01:21:04,VALID,916.788,VALID,0.2,VALID,97.9838,VALID,0,VALID,20.0148,VALID,128,VALID,0,
2014-11-21, 01:22:04,VALID,916.787,VALID,0,VALID,97.999,VALID,0,VALID,19.9758,VALID,129,VALID,0,
2014-11-21, 01:23:04,VALID,916.777,VALID,0,VALID,98.0143,VALID,0,VALID,19.9968,VALID,129,VALID,0,
2014-11-21, 01:24:04,VALID,916.745,VALID,0,VALID,97.9914,VALID,0,VALID,19.9563,VALID,129,VALID,0,
2014-11-21, 01:25:04,VALID,916.763,VALID,0,VALID,98.0219,VALID,0,VALID,19.9368,VALID,128,VALID,0,
2014-11-21, 01:26:04,VALID,916.761,VALID,0,VALID,97.999,VALID,0,VALID,19.9563,VALID,129,VALID,0,
2014-11-21, 01:27:04,VALID,916.754,VALID,0,VALID,98.0066,VALID,0,VALID,19.9773,VALID,129,VALID,0,
2014-11-21, 01:28:04,VALID,916.737,VALID,0,VALID,98.0143,VALID,0,VALID,19.9353,VALID,129,VALID,0,
2014-11-21, 01:29:04,VALID,916.697,VALID,0.2,VALID,97.9914,VALID,0,VALID,19.9368,VALID,129,VALID,0,
2014-11-21, 01:30:04,VALID,916.721,VALID,0,VALID,98.0066,VALID,0,VALID,19.8978,VALID,128,VALID,0,
2014-11-21, 01:31:04,VALID,916.72,VALID,0,VALID,98.0066,VALID,0,VALID,19.9173,VALID,129,VALID,0,
2014-11-21, 01:32:04,VALID,916.694,VALID,0,VALID,97.999,VALID,0.107441,VALID,19.9383,VALID,129,VALID,0,
2014-11-21, 01:33:04,VALID,916.687,VALID,0,VALID,97.999,VALID,0,VALID,19.9368,VALID,129,VALID,0,
2014-11-21, 01:34:04,VALID,916.661,VALID,0,VALID,97.999,VALID,0,VALID,19.9563,VALID,129,VALID,0,
2014-11-21, 01:35:04,VALID,916.65,VALID,0,VALID,97.9838,VALID,0,VALID,19.9578,VALID,128,VALID,0,
2014-11-21, 01:36:04,VALID,916.612,VALID,0,VALID,98.0066,VALID,0,VALID,19.9758,VALID,128,VALID,0,
2014-11-21, 01:37:04,VALID,916.606,VALID,0,VALID,98.0066,VALID,0,VALID,19.9773,VALID,128,VALID,0,
2014-11-21, 01:38:04,VALID,916.595,VALID,0,VALID,97.9838,VALID,0,VALID,19.9773,VALID,128,VALID,0,
2014-11-21, 01:39:04,VALID,916.608,VALID,0,VALID,97.999,VALID,0,VALID,19.9368,VALID,128,VALID,0,
2014-11-21, 01:40:04,VALID,916.641,VALID,0,VALID,97.999,VALID,0,VALID,19.9368,VALID,128,VALID,0,
2014-11-21, 01:41:04,VALID,916.606,VALID,0,VALID,98.0066,VALID,0,VALID,19.9368,VALID,128,VALID,0,
2014-11-21, 01:42:04,VALID,916.61,VALID,0,VALID,98.0219,VALID,0,VALID,19.8978,VALID,128,VALID,0,
2014-11-21, 01:43:04,VALID,916.628,VALID,0,VALID,98.0219,VALID,0,VALID,19.8993,VALID,128,VALID,0,
2014-11-21, 01:44:05,VALID,916.633,VALID,0,VALID,98.0295,VALID,0,VALID,19.8588,VALID,128,VALID,0,
2014-11-21, 01:45:05,VALID,916.628,VALID,0,VALID,98.0066,VALID,0,VALID,19.8588,VALID,128,VALID,0,
2014-11-21, 01:46:05,VALID,916.626,VALID,0,VALID,98.0295,VALID,0,VALID,19.8408,VALID,128,VALID,0,
2014-11-21, 01:47:05,VALID,916.624,VALID,0,VALID,98.0219,VALID,0,VALID,19.8003,VALID,128,VALID,0,
2014-11-21, 01:48:05,VALID,916.617,VALID,0,VALID,98.0371,VALID,0,VALID,19.7823,VALID,128,VALID,0,
2014-11-21, 01:49:05,VALID,916.632,VALID,0,VALID,98.0676,VALID,0,VALID,19.7418,VALID,128,VALID,0,
2014-11-21, 01:50:05,VALID,916.624,VALID,0,VALID,98.0295,VALID,0,VALID,19.7433,VALID,128,VALID,0,
2014-11-21, 01:51:05,VALID,916.63,VALID,0,VALID,98.0524,VALID,0,VALID,19.7223,VALID,128,VALID,0,
2014-11-21, 01:52:05,VALID,916.601,VALID,0,VALID,98.0295,VALID,0,VALID,19.7223,VALID,128,VALID,0,
2014-11-21, 01:53:05,VALID,916.606,VALID,0,VALID,98.0295,VALID,0,VALID,19.7418,VALID,132,VALID,0,
2014-11-21, 01:54:05,VALID,916.599,VALID,0,VALID,98.0448,VALID,0,VALID,19.7433,VALID,132,VALID,0,
2014-11-21, 01:55:05,VALID,916.621,VALID,0,VALID,98.0371,VALID,0,VALID,19.7223,VALID,132,VALID,0,
2014-11-21, 01:56:05,VALID,916.621,VALID,0,VALID,98.0295,VALID,0,VALID,19.7433,VALID,132,VALID,0,
2014-11-21, 01:57:05,VALID,916.607,VALID,0,VALID,98.0524,VALID,0,VALID,19.7433,VALID,132,VALID,0,
2014-11-21, 01:58:05,VALID,916.583,VALID,0,VALID,98.06,VALID,0,VALID,19.7238,VALID,132,VALID,0,
2014-11-21, 01:59:05,VALID,916.572,VALID,0,VALID,98.0295,VALID,0,VALID,19.7238,VALID,132,VALID,0,
2014-11-21, 02:00:05,VALID,916.544,VALID,0,VALID,98.0371,VALID,0,VALID,19.7043,VALID,128,VALID,0,
2014-11-21, 02:01:05,VALID,916.563,VALID,0,VALID,98.0295,VALID,0,VALID,19.7238,VALID,128,VALID,0,
2014-11-21, 02:02:05,VALID,916.572,VALID,0,VALID,98.0448,VALID,0,VALID,19.6833,VALID,128,VALID,0,
2014-11-21, 02:03:05,VALID,916.556,VALID,0,VALID,98.0371,VALID,0,VALID,19.6833,VALID,128,VALID,0,
2014-11-21, 02:04:05,VALID,916.532,VALID,0,VALID,98.0676,VALID,0,VALID,19.6848,VALID,128,VALID,0,
2014-11-21, 02:05:05,VALID,916.565,VALID,0,VALID,98.0448,VALID,0,VALID,19.6833,VALID,128,VALID,0.612891,
2014-11-21, 02:06:05,VALID,916.552,VALID,0,VALID,98.0448,VALID,0,VALID,19.6848,VALID,127,VALID,0.736328,
2014-11-21, 02:07:05,VALID,916.561,VALID,0,VALID,98.0524,VALID,0,VALID,19.6833,VALID,116,VALID,0.0222656,
2014-11-21, 02:08:05,VALID,916.581,VALID,0,VALID,98.0371,VALID,0,VALID,19.6848,VALID,113,VALID,0.840234,
2014-11-21, 02:09:05,VALID,916.573,VALID,0,VALID,98.0524,VALID,0,VALID,19.6638,VALID,116,VALID,0.448438,
2014-11-21, 02:10:05,VALID,916.583,VALID,0,VALID,98.0524,VALID,0,VALID,19.6443,VALID,124,VALID,0,
2014-11-21, 02:11:05,VALID,916.598,VALID,0,VALID,98.0524,VALID,0,VALID,19.6848,VALID,125,VALID,0.722656,
2014-11-21, 02:12:05,VALID,916.569,VALID,0,VALID,98.0676,VALID,0,VALID,19.6458,VALID,122,VALID,0,
2014-11-21, 02:13:05,VALID,916.567,VALID,0,VALID,98.06,VALID,0,VALID,19.6443,VALID,123,VALID,1.03242,
2014-11-21, 02:14:05,VALID,916.538,VALID,0,VALID,98.06,VALID,0,VALID,19.6443,VALID,113,VALID,0.420312,
2014-11-21, 02:15:05,VALID,916.525,VALID,0,VALID,98.0371,VALID,0,VALID,19.6443,VALID,125,VALID,0.711328,
2014-11-21, 02:16:05,VALID,916.529,VALID,0,VALID,98.0295,VALID,0,VALID,19.6443,VALID,132,VALID,0.318359,
2014-11-21, 02:17:05,VALID,916.506,VALID,0,VALID,98.0676,VALID,0,VALID,19.6653,VALID,135,VALID,0,
2014-11-21, 02:18:05,VALID,916.489,VALID,0,VALID,98.0371,VALID,0,VALID,19.6638,VALID,135,VALID,0,
2014-11-21, 02:19:05,VALID,916.479,VALID,0,VALID,98.06,VALID,0,VALID,19.6833,VALID,132,VALID,0,
2014-11-21, 02:20:05,VALID,916.413,VALID,0,VALID,98.0371,VALID,0,VALID,19.6848,VALID,142,VALID,0,
2014-11-21, 02:21:05,VALID,916.441,VALID,0,VALID,98.0371,VALID,0,VALID,19.6833,VALID,142,VALID,0,
2014-11-21, 02:22:05,VALID,916.403,VALID,0,VALID,98.0524,VALID,0,VALID,19.7028,VALID,139,VALID,0,
2014-11-21, 02:23:05,VALID,916.373,VALID,0,VALID,98.0371,VALID,0,VALID,19.7043,VALID,139,VALID,0,
2014-11-21, 02:24:05,VALID,916.353,VALID,0,VALID,98.0219,VALID,0,VALID,19.7043,VALID,139,VALID,0,
2014-11-21, 02:25:05,VALID,916.345,VALID,0,VALID,98.0295,VALID,0,VALID,19.7238,VALID,139,VALID,0,
2014-11-21, 02:26:05,VALID,916.325,VALID,0,VALID,98.0448,VALID,0,VALID,19.7043,VALID,139,VALID,0,
2014-11-21, 02:27:05,VALID,916.314,VALID,0,VALID,98.0295,VALID,0,VALID,19.7238,VALID,139,VALID,0,
2014-11-21, 02:28:05,VALID,916.276,VALID,0,VALID,98.0295,VALID,0,VALID,19.7238,VALID,139,VALID,0,
2014-11-21, 02:29:05,VALID,916.269,VALID,0,VALID,98.0371,VALID,0,VALID,19.7223,VALID,141,VALID,0,
2014-11-21, 02:30:05,VALID,916.248,VALID,0,VALID,98.0448,VALID,0,VALID,19.7028,VALID,152,VALID,0,
2014-11-21, 02:31:05,VALID,916.231,VALID,0,VALID,98.0143,VALID,0,VALID,19.7238,VALID,152,VALID,0,
2014-11-21, 02:32:05,VALID,916.204,VALID,0,VALID,98.0295,VALID,0,VALID,19.7223,VALID,152,VALID,0,
2014-11-21, 02:33:05,VALID,916.208,VALID,0,VALID,98.0066,VALID,0,VALID,19.7223,VALID,152,VALID,0,
2014-11-21, 02:34:05,VALID,916.191,VALID,0,VALID,98.0219,VALID,0,VALID,19.7433,VALID,152,VALID,0,
2014-11-21, 02:35:05,VALID,916.147,VALID,0,VALID,98.0219,VALID,0,VALID,19.7223,VALID,152,VALID,0,
2014-11-21, 02:36:05,VALID,916.116,VALID,0,VALID,98.0143,VALID,0.107441,VALID,19.7418,VALID,152,VALID,0,
2014-11-21, 02:37:05,VALID,916.105,VALID,0,VALID,98.0371,VALID,0,VALID,19.7223,VALID,152,VALID,0,
2014-11-21, 02:38:05,VALID,916.083,VALID,0,VALID,98.0371,VALID,0,VALID,19.7223,VALID,152,VALID,0,
2014-11-21, 02:39:05,VALID,916.061,VALID,0,VALID,98.0295,VALID,0,VALID,19.7223,VALID,152,VALID,0,
2014-11-21, 02:40:05,VALID,916.057,VALID,0,VALID,98.0066,VALID,0,VALID,19.7223,VALID,152,VALID,0,
2014-11-21, 02:41:05,VALID,916.026,VALID,0,VALID,98.0219,VALID,0,VALID,19.7418,VALID,152,VALID,0,
2014-11-21, 02:42:05,VALID,915.99,VALID,0,VALID,98.0143,VALID,0,VALID,19.7613,VALID,152,VALID,0,
2014-11-21, 02:43:05,VALID,915.985,VALID,0,VALID,98.0295,VALID,0,VALID,19.7808,VALID,152,VALID,0,
2014-11-21, 02:44:05,VALID,915.97,VALID,0,VALID,98.0219,VALID,0.107441,VALID,19.7808,VALID,152,VALID,0,
2014-11-21, 02:45:05,VALID,915.958,VALID,0,VALID,98.0219,VALID,0,VALID,19.8003,VALID,152,VALID,0,
2014-11-21, 02:46:05,VALID,915.95,VALID,0,VALID,98.0219,VALID,0.107441,VALID,19.8198,VALID,152,VALID,0,
2014-11-21, 02:47:05,VALID,915.909,VALID,0,VALID,98.0066,VALID,0.107441,VALID,19.7988,VALID,152,VALID,0,
2014-11-21, 02:48:05,VALID,915.879,VALID,0,VALID,98.0219,VALID,0.107441,VALID,19.8198,VALID,152,VALID,0,
2014-11-21, 02:49:05,VALID,915.891,VALID,0,VALID,98.0219,VALID,0,VALID,19.8198,VALID,152,VALID,0,
2014-11-21, 02:50:05,VALID,915.826,VALID,0,VALID,98.0143,VALID,0.107441,VALID,19.8573,VALID,152,VALID,0,
2014-11-21, 02:51:05,VALID,915.837,VALID,0,VALID,98.0066,VALID,0,VALID,19.8603,VALID,152,VALID,0,
2014-11-21, 02:52:05,VALID,915.826,VALID,0,VALID,98.0143,VALID,0,VALID,19.8603,VALID,113,VALID,0,
2014-11-21, 02:53:05,VALID,915.833,VALID,0,VALID,98.0066,VALID,0,VALID,19.8198,VALID,113,VALID,0,
2014-11-21, 02:54:05,VALID,915.814,VALID,0,VALID,98.0143,VALID,0,VALID,19.8408,VALID,113,VALID,0,
2014-11-21, 02:55:05,VALID,915.81,VALID,0,VALID,98.0143,VALID,0,VALID,19.8423,VALID,113,VALID,0,
2014-11-21, 02:56:05,VALID,915.814,VALID,0,VALID,98.0219,VALID,0,VALID,19.8213,VALID,113,VALID,0,
2014-11-21, 02:57:05,VALID,915.796,VALID,0,VALID,98.0295,VALID,0,VALID,19.8018,VALID,113,VALID,0,
2014-11-21, 02:58:05,VALID,915.747,VALID,0,VALID,98.0448,VALID,0,VALID,19.7433,VALID,113,VALID,0,
2014-11-21, 02:59:05,VALID,915.774,VALID,0,VALID,98.06,VALID,0,VALID,19.7433,VALID,113,VALID,0,
2014-11-21, 03:00:05,VALID,915.744,VALID,0,VALID,98.0295,VALID,0,VALID,19.7823,VALID,113,VALID,0,
2014-11-21, 03:01:05,VALID,915.749,VALID,0,VALID,98.0219,VALID,0,VALID,19.7433,VALID,113,VALID,0,
2014-11-21, 03:02:05,VALID,915.76,VALID,0,VALID,98.0295,VALID,0,VALID,19.7628,VALID,113,VALID,0,
2014-11-21, 03:03:05,VALID,915.782,VALID,0,VALID,98.0219,VALID,0,VALID,19.7823,VALID,113,VALID,0,
2014-11-21, 03:04:05,VALID,915.769,VALID,0,VALID,98.0066,VALID,0,VALID,19.7628,VALID,113,VALID,0,
2014-11-21, 03:05:05,VALID,915.764,VALID,0,VALID,98.0219,VALID,0,VALID,19.7823,VALID,113,VALID,0,
2014-11-21, 03:06:05,VALID,915.783,VALID,0,VALID,98.0143,VALID,0,VALID,19.7823,VALID,113,VALID,0,
2014-11-21, 03:07:05,VALID,915.794,VALID,0,VALID,98.0295,VALID,0,VALID,19.7628,VALID,113,VALID,0,
2014-11-21, 03:08:05,VALID,915.75,VALID,0,VALID,98.0371,VALID,0,VALID,19.7418,VALID,113,VALID,0,
2014-11-21, 03:09:05,VALID,915.759,VALID,0,VALID,98.0448,VALID,0,VALID,19.7028,VALID,113,VALID,0,
2014-11-21, 03:10:05,VALID,915.791,VALID,0,VALID,98.0295,VALID,0,VALID,19.7028,VALID,113,VALID,0,
2014-11-21, 03:11:05,VALID,915.778,VALID,0,VALID,98.0448,VALID,0,VALID,19.7043,VALID,113,VALID,0,
2014-11-21, 03:12:05,VALID,915.768,VALID,0,VALID,98.0371,VALID,0,VALID,19.6458,VALID,113,VALID,0,
2014-11-21, 03:13:05,VALID,915.745,VALID,0,VALID,98.0752,VALID,0,VALID,19.6458,VALID,113,VALID,0,
2014-11-21, 03:14:05,VALID,915.731,VALID,0,VALID,98.0448,VALID,0,VALID,19.6653,VALID,113,VALID,0,
2014-11-21, 03:15:05,VALID,915.75,VALID,0,VALID,98.0524,VALID,0,VALID,19.6263,VALID,113,VALID,0,
2014-11-21, 03:16:05,VALID,915.738,VALID,0,VALID,98.0752,VALID,0,VALID,19.6068,VALID,113,VALID,0,
2014-11-21, 03:17:05,VALID,915.706,VALID,0,VALID,98.0524,VALID,0,VALID,19.6263,VALID,113,VALID,0,
2014-11-21, 03:18:05,VALID,915.707,VALID,0,VALID,98.0676,VALID,0,VALID,19.6068,VALID,113,VALID,0,
2014-11-21, 03:19:05,VALID,915.694,VALID,0,VALID,98.0676,VALID,0,VALID,19.5873,VALID,113,VALID,0,
2014-11-21, 03:20:05,VALID,915.673,VALID,0,VALID,98.06,VALID,0,VALID,19.5873,VALID,113,VALID,0,
2014-11-21, 03:21:05,VALID,915.652,VALID,0,VALID,98.06,VALID,0,VALID,19.6053,VALID,113,VALID,0,
2014-11-21, 03:22:05,VALID,915.649,VALID,0,VALID,98.0524,VALID,0.107441,VALID,19.6053,VALID,113,VALID,0,
2014-11-21, 03:23:05,VALID,915.639,VALID,0,VALID,98.0676,VALID,0,VALID,19.6053,VALID,113,VALID,0,
2014-11-21, 03:24:05,VALID,915.622,VALID,0,VALID,98.06,VALID,0,VALID,19.5858,VALID,113,VALID,0,
2014-11-21, 03:25:05,VALID,915.632,VALID,0,VALID,98.06,VALID,0.107441,VALID,19.5648,VALID,113,VALID,0,
2014-11-21, 03:26:05,VALID,915.621,VALID,0,VALID,98.06,VALID,0.107441,VALID,19.5648,VALID,113,VALID,0,
2014-11-21, 03:27:05,VALID,915.603,VALID,0,VALID,98.0448,VALID,0,VALID,19.5663,VALID,113,VALID,0,
2014-11-21, 03:28:05,VALID,915.597,VALID,0.2,VALID,98.0676,VALID,0,VALID,19.5663,VALID,113,VALID,0,
2014-11-21, 03:29:05,VALID,915.585,VALID,0,VALID,98.0829,VALID,0.107441,VALID,19.6053,VALID,113,VALID,0,
2014-11-21, 03:30:05,VALID,915.587,VALID,0,VALID,98.06,VALID,0.107441,VALID,19.5858,VALID,113,VALID,0,
2014-11-21, 03:31:05,VALID,915.584,VALID,0,VALID,98.06,VALID,0,VALID,19.6248,VALID,113,VALID,0,
2014-11-21, 03:32:05,VALID,915.598,VALID,0,VALID,98.0371,VALID,0.107441,VALID,19.6248,VALID,113,VALID,0,
2014-11-21, 03:33:05,VALID,915.565,VALID,0,VALID,98.0448,VALID,0.107441,VALID,19.6443,VALID,113,VALID,0,
2014-11-21, 03:34:05,VALID,915.582,VALID,0,VALID,98.0448,VALID,0,VALID,19.6443,VALID,113,VALID,0,
2014-11-21, 03:35:05,VALID,915.572,VALID,0,VALID,98.0371,VALID,0,VALID,19.7028,VALID,113,VALID,0,
2014-11-21, 03:36:05,VALID,915.549,VALID,0,VALID,98.0295,VALID,0,VALID,19.7028,VALID,113,VALID,0,
2014-11-21, 03:37:05,VALID,915.571,VALID,0,VALID,98.0295,VALID,0.107441,VALID,19.6428,VALID,113,VALID,0,
2014-11-21, 03:38:05,VALID,915.547,VALID,0,VALID,98.0295,VALID,0.107441,VALID,19.6833,VALID,113,VALID,0,
2014-11-21, 03:39:05,VALID,915.563,VALID,0,VALID,98.0448,VALID,0.107441,VALID,19.7223,VALID,113,VALID,0,
2014-11-21, 03:40:05,VALID,915.575,VALID,0,VALID,98.0219,VALID,0,VALID,19.6833,VALID,113,VALID,0,
2014-11-21, 03:41:05,VALID,915.539,VALID,0,VALID,98.0371,VALID,0.107441,VALID,19.7028,VALID,113,VALID,0,
2014-11-21, 03:42:05,VALID,915.571,VALID,0,VALID,98.0219,VALID,0.107441,VALID,19.6818,VALID,113,VALID,0,
2014-11-21, 03:43:05,VALID,915.59,VALID,0,VALID,98.0371,VALID,0.107441,VALID,19.6623,VALID,113,VALID,0,
2014-11-21, 03:44:05,VALID,915.567,VALID,0,VALID,98.0448,VALID,0.107441,VALID,19.6623,VALID,113,VALID,0,
2014-11-21, 03:45:05,VALID,915.564,VALID,0,VALID,98.0371,VALID,0.107441,VALID,19.6623,VALID,113,VALID,0,
2014-11-21, 03:46:05,VALID,915.582,VALID,0,VALID,98.0219,VALID,0.107441,VALID,19.6428,VALID,113,VALID,0,
2014-11-21, 03:47:05,VALID,915.586,VALID,0,VALID,98.0448,VALID,0,VALID,19.6638,VALID,113,VALID,0,
2014-11-21, 03:48:05,VALID,915.595,VALID,0,VALID,98.0371,VALID,0.107441,VALID,19.6818,VALID,113,VALID,0,
2014-11-21, 03:49:05,VALID,915.574,VALID,0,VALID,98.0524,VALID,0.107441,VALID,19.6428,VALID,113,VALID,0,
2014-11-21, 03:50:05,VALID,915.612,VALID,0,VALID,98.0295,VALID,0,VALID,19.6638,VALID,113,VALID,0,
2014-11-21, 03:51:05,VALID,915.631,VALID,0,VALID,98.0295,VALID,0,VALID,19.6653,VALID,113,VALID,0,
2014-11-21, 03:52:05,VALID,915.602,VALID,0,VALID,98.0448,VALID,0,VALID,19.6248,VALID,113,VALID,0,
2014-11-21, 03:53:05,VALID,915.616,VALID,0,VALID,98.0448,VALID,0,VALID,19.6848,VALID,117,VALID,0,
2014-11-21, 03:54:05,VALID,915.659,VALID,0,VALID,98.0295,VALID,0,VALID,19.6443,VALID,117,VALID,0,
2014-11-21, 03:55:05,VALID,915.676,VALID,0,VALID,98.0371,VALID,0,VALID,19.6848,VALID,117,VALID,0,
2014-11-21, 03:56:05,VALID,915.651,VALID,0,VALID,98.0448,VALID,0,VALID,19.7043,VALID,126,VALID,0,